[[{"header":{"parameterUnit":"m.s-1","parameterCategory":1,"la1":30.2991,"la2":30.254,"lo1":-89.0895,"lo2":-89.0444,"dy":0.0017,"dx":0.0017,"nx":28,"ny":28,"refTime":"2023-10-03T09:00:00:Z","depth":0,"parameterNumber":2,"parameterNumberName":"U-component_of_WINDS"},"data":[0,0,0,0,0,0,0,0,0,0,0,0,0,0,0,0,0,0,0,0,0,0,0,0,0,0,0,0,0,0,0,0,0,0,0,0,0,0,0,0,0,0,0,0,0,0,0,0,0,0,0,0,0,0,0,0,0,0,-2.8915,-2.8917,0,-2.903,-2.9032,-2.9033,-2.9003,-2.9001,-2.8999,-2.8996,-2.9114,-2.9119,-2.9124,0,0,0,0,0,0,0,0,0,0,0,0,0,-2.8669,-2.8674,-2.8915,-2.8917,-2.8918,-2.903,-2.9032,-2.9033,-2.9004,-2.9001,-2.8998,-2.8995,-2.9112,-2.9118,-2.9124,0,0,0,0,0,0,0,0,0,0,0,0,0,-2.8779,-2.8675,-2.8915,-2.8917,-2.8918,-2.903,-2.9032,-2.9034,-2.9004,-2.9001,-2.8997,-2.8994,-2.911,-2.9117,-2.9125,-2.9242,0,0,-2.9149,-2.9153,0,0,0,0,0,0,0,0,-2.8773,-2.8788,-2.8915,-2.8917,-2.8918,-2.8999,-2.8988,-2.9104,-2.9005,-2.8971,-2.8996,-2.8992,-2.9078,-2.9088,-2.9118,-2.9248,-2.9253,-2.915,-2.9155,-2.9158,-2.916,0,0,0,0,0,0,0,-2.8765,-2.8783,-2.8961,-2.8917,-2.8919,-2.8912,-2.8923,-2.901,-2.9043,-2.8974,-2.8972,-2.8986,-2.9078,-2.911,-2.912,-2.9255,-2.915,-2.9157,-2.9162,-2.9165,-2.9486,-2.949,0,0,0,0,0,0,-2.8756,-2.8777,-2.8957,-2.8964,-2.8836,-2.8919,-2.8932,-2.8977,-2.9042,-2.9048,-2.8989,-2.8984,-2.9098,-2.9111,-2.9124,-2.9265,-2.9158,-2.9165,-2.917,-2.9483,-2.9487,-2.9491,0,0,0,0,0,0,-2.8751,-2.8773,-2.8952,-2.887,-2.8892,-2.8927,-2.8977,-2.8981,-2.9012,-2.9053,-2.9058,-2.9015,-2.9096,-2.9113,-2.9213,-2.9268,-2.9169,-2.9176,-2.9478,-2.9484,-2.9489,-2.9548,0,0,0,0,0,0,-2.8744,-2.8771,-2.8816,-2.8871,-2.8897,-2.904,-2.898,-2.8985,-2.9026,-2.9021,-2.9079,-2.9085,-2.9095,-2.9202,-2.9221,-2.9278,-2.9182,-2.9473,-2.9481,-2.9488,-2.9541,-2.9555,-2.9566,0,0,0,0,0,-2.8736,-2.8828,-2.8818,-2.884,-2.8954,-2.9043,-2.9058,-2.9067,-2.903,-2.9076,-2.9102,-2.9083,-2.926,-2.9212,-2.9234,-2.9293,-2.947,-2.9479,-2.9487,-2.9535,-2.9552,-2.9566,0,0,0,0,0,0,-2.8777,-2.8835,-2.8825,-2.8938,-2.8986,-2.9038,-2.9095,-2.9084,-2.9143,-2.9136,-2.9145,-2.9158,-2.9261,-2.9287,-2.9233,-2.941,-2.9359,-2.9373,-2.9389,-2.9405,-2.9417,-2.9408,-2.9189,0,0,0,0,0,-2.88,-2.8868,-2.8914,-2.9009,-2.9034,-2.9061,-2.91,-2.9103,-2.9153,-2.9173,-2.9206,-2.9255,-2.9321,-2.9365,-2.9428,-2.9545,-2.9557,-2.9597,-2.961,-2.962,-2.9631,-2.9694,-2.9713,-2.952,-2.952,-2.9519,0,0,-2.8846,-2.8886,-2.8929,-2.9019,-2.9056,-2.9126,-2.9078,-2.9154,-2.9205,-2.9184,-2.928,-2.9307,-2.9362,-2.9471,-2.9521,-2.9497,-2.9687,-2.9631,-2.9639,-2.9644,-2.9705,-2.9723,-2.974,-2.9526,-2.9524,-2.9524,0,0,-2.8967,-2.9005,-2.9087,-2.9126,-2.9184,-2.9201,-2.9221,-2.9275,-2.9292,-2.9389,-2.9374,-2.9436,-2.9551,-2.959,-2.9626,-2.9763,-2.9747,-2.9783,-2.9849,-2.9911,-2.9926,-2.994,-2.9988,-3.0005,-2.9794,-2.9794,-2.9795,0,-2.9018,-2.9122,-2.9131,-2.9209,-2.9249,-2.9233,-2.9317,-2.9354,-2.943,-2.9458,-2.943,-2.9573,-2.9609,-2.9727,-2.976,-2.979,-2.9812,-2.9776,-2.9923,-2.9937,-2.995,-2.9995,-3.0014,-2.9798,-2.9798,-2.9797,-2.9797,0,-2.9182,-2.9255,-2.9315,-2.9388,-2.9435,-2.9515,-2.9536,-2.9583,-2.9582,-2.9602,-2.9701,-2.9744,-2.9816,-2.9845,-2.9845,-2.9963,-2.9946,-2.9921,-2.987,-2.9972,-3.0015,-3.0033,-2.9804,-2.9802,-2.9801,-2.98,0,0,-2.933,-2.9408,-2.943,-2.9463,-2.9526,-2.9582,-2.9662,-2.9733,-2.9772,-2.9825,-2.9891,-2.9989,-2.9966,-3.0006,-3.0011,-3.0065,-3.017,-3.0033,-3.0035,-3.0056,-3.0302,-3.032,-3.034,-3.0161,-3.0165,-3.0167,-3.0297,0,-2.9456,-2.9596,-2.9607,-2.9733,-2.98,-2.9787,-2.9857,-2.9903,-2.9924,-2.9984,-3.0008,-3.0077,-3.0042,-3.0066,-3.0119,-3.0146,-3.0219,-3.0137,-3.0223,-3.0226,-3.0208,-3.0363,-3.0382,-3.0502,-3.0314,-3.0317,-3.0319,0,-2.962,-2.9678,-2.9811,-2.9865,-2.9893,-2.9955,-3.0021,-3.0079,-3.0131,-3.0143,-3.0188,-3.0185,-3.0267,-3.0214,-3.0327,-3.0271,-3.0307,-3.0325,-3.033,-3.0337,-3.0277,-3.0373,-3.054,-3.0558,-3.0346,-3.0344,-3.0342,0,-2.9714,-2.9826,-2.9919,-2.9948,-3.0013,-3.0057,-3.0086,-3.0135,-3.0177,-3.0234,-3.0261,-3.0328,-3.0364,-3.0415,-3.043,-3.039,-3.0542,-3.0491,-3.0554,-3.0553,-3.0585,-3.0583,-3.0759,-3.0611,-3.061,-3.061,-3.061,0,-2.9852,-2.9934,-2.9963,-3.002,-3.0111,-3.0123,-3.0213,-3.024,-3.0283,-3.0346,-3.0339,-3.0398,-3.0415,-3.0477,-3.049,-3.0581,-3.0597,-3.0609,-3.0611,-3.0609,-3.0607,-3.0631,-3.0623,-3.0615,-3.0614,-3.0613,-3.0612,0,-2.9972,-2.9995,-3.0096,-3.0149,-3.0165,-3.0229,-3.0275,-3.033,-3.0351,-3.043,-3.045,-3.0482,-3.0555,-3.0575,-3.0663,-3.0671,-3.0778,-3.0773,-3.076,-3.076,-3.0821,-3.0815,-3.1019,-3.1046,-3.088,-3.0882,-3.0883,0,-3.0058,-3.012,-3.0181,-3.0222,-3.0253,-3.032,-3.0362,-3.0377,-3.0421,-3.0486,-3.0534,-3.0605,-3.0663,-3.078,-3.0811,-3.0878,-3.0874,-3.0941,-3.0884,-3.0879,-3.0874,-3.0869,-3.0875,-3.0951,-3.0953,-3.0954,-3.0955,0,-3.0208,-3.0216,-3.0278,-3.0344,-3.0395,-3.0447,-3.0498,-3.0532,-3.0554,-3.0604,-3.0678,-3.0724,-3.0813,-3.0884,-3.0952,-3.0981,-3.0972,-3.0973,-3.0991,-3.0989,-3.0979,-3.0984,-3.0788,-3.0968,-3.0967,-3.0966,-3.0965,-3.0965,-3.0313,-3.0368,-3.0418,-3.0487,-3.0527,-3.0574,-3.0629,-3.0657,-3.0719,-3.0792,-3.0798,-3.0878,-3.0929,-3.1019,-3.1052,-3.1115,-3.1095,-3.1121,-3.1128,-3.1134,-3.1138,-3.097,-3.1128,-3.1127,-3.1127,-3.1127,-3.1127,0,-3.0461,-3.0494,-3.0557,-3.0628,-3.0682,-3.0669,-3.0725,-3.0771,-3.0842,-3.089,-3.0947,-3.1032,-3.1102,-3.1139,-3.1208,-3.1251,-3.1248,-3.1268,-3.1265,-3.1272,-3.1153,-3.113,-3.1269,-3.1269,-3.1269,-3.1269,-3.1269,-3.1269,-3.0545,-3.0637,-3.0651,-3.0763,-3.0794,-3.0873,-3.0906,-3.0949,-3.0988,-3.1083,-3.1141,-3.1165,-3.1209,-3.1281,-3.1344,-3.1353,-3.1378,-3.14,-3.1407,-3.1295,-3.128,-3.1266,-3.1245,-3.1406,-3.1406,-3.152,-3.1521,-3.1522]},{"header":{"parameterUnit":"m.s-1","parameterCategory":1,"la1":30.2991,"la2":30.254,"lo1":-89.0895,"lo2":-89.0444,"dy":0.0017,"dx":0.0017,"nx":28,"ny":28,"refTime":"2023-10-03T09:00:00:Z","depth":0,"parameterNumber":3,"parameterNumberName":"V-component_of_WINDS"},"data":[0,0,0,0,0,0,0,0,0,0,0,0,0,0,0,0,0,0,0,0,0,0,0,0,0,0,0,0,0,0,0,0,0,0,0,0,0,0,0,0,0,0,0,0,0,0,0,0,0,0,0,0,0,0,0,0,0,0,1.669,1.669,0,1.6681,1.6681,1.6681,1.6621,1.6619,1.6618,1.6616,1.6607,1.6608,1.6609,0,0,0,0,0,0,0,0,0,0,0,0,0,1.6656,1.6657,1.669,1.669,1.669,1.6681,1.6681,1.668,1.6621,1.6619,1.6617,1.6616,1.6607,1.6608,1.6609,0,0,0,0,0,0,0,0,0,0,0,0,0,1.6661,1.6657,1.669,1.6659,1.6656,1.6681,1.6681,1.668,1.6621,1.6619,1.6617,1.6615,1.6606,1.6608,1.661,1.6664,0,0,1.6615,1.6615,0,0,0,0,0,0,0,0,1.6661,1.6662,1.6663,1.6661,1.6658,1.665,1.6665,1.6675,1.6622,1.6634,1.6616,1.6614,1.6623,1.6623,1.6626,1.6663,1.6663,1.6615,1.6616,1.6617,1.6617,0,0,0,0,0,0,0,1.6661,1.6662,1.6686,1.6664,1.666,1.6645,1.6644,1.6667,1.6641,1.6633,1.6629,1.6628,1.6621,1.6625,1.6626,1.6663,1.6615,1.6616,1.6617,1.6618,1.6744,1.6746,0,0,0,0,0,0,1.6665,1.6663,1.6686,1.6686,1.6654,1.6648,1.6646,1.6654,1.6641,1.6636,1.663,1.6626,1.6623,1.6624,1.6625,1.6687,1.6617,1.6618,1.6619,1.6741,1.6744,1.6747,0,0,0,0,0,0,1.6664,1.6667,1.6687,1.6673,1.6674,1.6651,1.6661,1.6655,1.6659,1.6639,1.6634,1.6639,1.6621,1.6623,1.6654,1.6686,1.6619,1.662,1.6738,1.6742,1.6745,1.6811,0,0,0,0,0,0,1.6663,1.6667,1.6688,1.6674,1.6675,1.6716,1.6663,1.6657,1.6662,1.6656,1.6645,1.6641,1.662,1.6652,1.6656,1.6687,1.6622,1.6736,1.674,1.6744,1.6806,1.6817,1.6826,0,0,0,0,0,1.6662,1.6707,1.6689,1.6692,1.67,1.6718,1.6719,1.6693,1.6665,1.6685,1.6672,1.6642,1.6682,1.6656,1.666,1.6692,1.6733,1.6739,1.6744,1.6802,1.6815,1.6826,0,0,0,0,0,0,1.6724,1.6704,1.6684,1.6726,1.6724,1.6708,1.6732,1.6708,1.6714,1.6708,1.6676,1.6674,1.671,1.6704,1.6676,1.6743,1.6703,1.6709,1.6746,1.6757,1.6767,1.6767,1.6623,0,0,0,0,0,1.6743,1.6759,1.6741,1.6779,1.6779,1.6757,1.6763,1.6744,1.6741,1.674,1.6729,1.6728,1.674,1.6749,1.6759,1.6806,1.6802,1.683,1.6839,1.6847,1.6853,1.6877,1.6888,1.6764,1.6764,1.6764,0,0,1.6781,1.6772,1.6784,1.6791,1.6788,1.6806,1.6756,1.6777,1.679,1.6743,1.6772,1.6765,1.6761,1.68,1.6817,1.6796,1.6887,1.6854,1.6861,1.6861,1.6883,1.6895,1.6906,1.6767,1.6767,1.6766,0,0,1.6859,1.6855,1.6886,1.6884,1.6879,1.6864,1.6871,1.6859,1.6852,1.6881,1.6846,1.6862,1.6883,1.6882,1.6884,1.6964,1.6936,1.6968,1.7018,1.7042,1.7051,1.706,1.7087,1.7098,1.6974,1.6974,1.6974,0,1.6907,1.6932,1.6905,1.6928,1.6932,1.6891,1.6922,1.6921,1.6921,1.6924,1.6901,1.6928,1.6923,1.6961,1.698,1.6984,1.6991,1.6968,1.7052,1.7061,1.7068,1.7094,1.7104,1.6978,1.6977,1.6977,1.6976,0,1.6991,1.7009,1.7035,1.7035,1.7042,1.707,1.7046,1.7057,1.7037,1.7024,1.7054,1.7046,1.7054,1.7062,1.7043,1.7098,1.7085,1.7058,1.7016,1.7084,1.7108,1.7118,1.6983,1.6982,1.6981,1.698,0,0,1.7107,1.7092,1.7102,1.7101,1.7094,1.7108,1.7133,1.7141,1.715,1.7152,1.7172,1.7192,1.7167,1.7169,1.715,1.7171,1.7233,1.7141,1.714,1.7157,1.7293,1.7313,1.7325,1.7216,1.7218,1.7219,1.7293,0,1.7181,1.7223,1.72,1.7245,1.7261,1.7223,1.7246,1.7244,1.7233,1.7245,1.7233,1.7247,1.7213,1.7215,1.7234,1.7222,1.726,1.7216,1.7234,1.7235,1.7234,1.7337,1.7358,1.7428,1.7302,1.7304,1.7305,0,1.7273,1.7278,1.7325,1.7315,1.7321,1.7341,1.7346,1.7359,1.7356,1.7347,1.735,1.7326,1.735,1.7311,1.7344,1.7314,1.7321,1.7316,1.7318,1.7317,1.7273,1.7338,1.7449,1.746,1.7319,1.7318,1.7317,0,1.7351,1.737,1.7401,1.7402,1.7391,1.7406,1.7402,1.7397,1.7403,1.7408,1.7412,1.742,1.7424,1.7431,1.741,1.7383,1.7445,1.7404,1.7438,1.7438,1.7451,1.745,1.7564,1.7458,1.7458,1.7457,1.7457,0,1.7436,1.7466,1.7436,1.7454,1.7487,1.746,1.7493,1.7486,1.7482,1.7498,1.7467,1.7483,1.7454,1.7468,1.7451,1.7481,1.7483,1.7476,1.7471,1.7478,1.7479,1.748,1.7475,1.746,1.746,1.7459,1.7459,0,1.7528,1.7509,1.7539,1.7527,1.7525,1.7549,1.7538,1.7555,1.7543,1.7564,1.7568,1.7548,1.7562,1.7542,1.7554,1.7543,1.7583,1.7572,1.7584,1.758,1.7615,1.7612,1.7732,1.7746,1.7633,1.7634,1.7635,0,1.7582,1.7604,1.7594,1.7603,1.7601,1.7616,1.7622,1.7597,1.7605,1.7604,1.7621,1.7633,1.764,1.7665,1.7652,1.7661,1.7649,1.7691,1.765,1.7656,1.7648,1.7646,1.7648,1.7698,1.77,1.7701,1.7702,0,1.768,1.767,1.768,1.7688,1.7696,1.7701,1.7703,1.7712,1.7686,1.7696,1.7711,1.7717,1.773,1.7741,1.7747,1.7743,1.7718,1.7715,1.7723,1.773,1.7736,1.7732,1.7606,1.7712,1.7711,1.771,1.771,1.7709,1.7754,1.7772,1.7768,1.7781,1.778,1.7783,1.7798,1.7788,1.7799,1.7807,1.7792,1.781,1.7807,1.7813,1.7812,1.7826,1.7807,1.7819,1.7822,1.7825,1.783,1.7735,1.7827,1.7826,1.7826,1.7826,1.7826,0,1.785,1.7846,1.7858,1.7862,1.7872,1.7848,1.7849,1.7859,1.7876,1.7875,1.7884,1.79,1.7912,1.79,1.791,1.7923,1.7912,1.7926,1.7924,1.7924,1.7846,1.7838,1.7935,1.7935,1.7935,1.7935,1.7935,1.7935,1.7901,1.793,1.7919,1.7948,1.7943,1.796,1.7963,1.7966,1.7965,1.7985,1.7995,1.7987,1.7982,1.7991,1.8001,1.7997,1.8001,1.802,1.8012,1.794,1.7929,1.7919,1.791,1.8021,1.8022,1.8088,1.8088,1.8089]}]]